Fort Lauderdale, FL

11:46 PM EDT on August 28, 2016 (GMT -0400)
Fort Lauderdale Executive

Weather History for KFXE - May, 2013

Change the Weather History Date:

Tuesday, May 7, 2013

  Actual Average Record
Temperature  
Mean Temperature 73 °F -  
Max Temperature 84 °F 86 °F 92 °F (1980)
Min Temperature 64 °F 69 °F 59 °F (2016)
Cooling Degree Days 8    
Growing Degree Days 23 (Base 50)    
Moisture  
Dew Point 59 °F    
Average Humidity 62    
Maximum Humidity 87    
Minimum Humidity 39    
Precipitation  
Precipitation 0.00 in - - ()
Sea Level Pressure  
Sea Level Pressure 30.03 in    
Wind  
Wind Speed 7 mph (West)    
Max Wind Speed 15 mph    
Max Gust Speed 22 mph    
Visibility 10 miles    
Events      
Averages and records for this station are not official NWS values.
T = Trace of Precipitation, MM = Missing Value Source: NWS Daily Summary

Daily Weather History Graph

Daily Weather History Graph

Search for Another Location

Airport or City:

Trip Planner

Search our weather history database for the weather conditions in past years. The results will help you decide how hot, cold, wet, or windy it might be!

Date:

Astronomy

May. 07, 2013 Rise Set
Actual Time 6:38 AM EDT 7:55 PM EDT
Civil Twilight 6:14 AM EDT 8:20 PM EDT
Nautical Twilight 5:44 AM EDT 8:49 PM EDT
Astronomical Twilight 5:14 AM EDT 9:20 PM EDT
Moon 4:59 AM EDT (5/7) 6:03 PM EDT (5/7)
Length of Visible Light 14h 06m
Length of Day
13h 17m
Waning Crescent, 5% of the Moon is Illuminated
May 7
Waning Crescent
May 9
New
May 18
First Quarter
May 25
Full
May 31
Last Quarter

Hourly Weather History & Observations

Time (EDT) Temp. Heat Index Dew Point Humidity Pressure Visibility Wind Dir Wind Speed Gust Speed Precip Events Conditions
12:53 AM 70.0 °F - 63.0 °F 78% 30.01 in 10.0 mi West 5.8 mph - N/A   Clear
1:53 AM 69.1 °F - 62.1 °F 78% 30.01 in 10.0 mi NW 4.6 mph - N/A   Clear
2:53 AM 66.9 °F - 57.9 °F 73% 29.99 in 10.0 mi WNW 5.8 mph - N/A   Clear
3:53 AM 64.4 °F - 59.0 °F 83% 29.99 in 10.0 mi WNW 4.6 mph - N/A   Clear
4:53 AM 64.9 °F - 59.0 °F 81% 30.00 in 10.0 mi WNW 3.5 mph - N/A   Clear
5:53 AM 64.0 °F - 59.0 °F 84% 30.01 in 10.0 mi WNW 4.6 mph - N/A   Clear
6:53 AM 64.0 °F - 60.1 °F 87% 30.02 in 10.0 mi WNW 3.5 mph - N/A   Clear
7:53 AM 66.9 °F - 59.0 °F 76% 30.04 in 10.0 mi NNW 6.9 mph - N/A   Clear
8:53 AM 70.0 °F - 59.0 °F 68% 30.06 in 10.0 mi NNW 5.8 mph - N/A   Clear
9:53 AM 73.0 °F - 59.0 °F 61% 30.07 in 10.0 mi WNW 6.9 mph - N/A   Clear
10:53 AM 75.0 °F - 59.0 °F 57% 30.07 in 10.0 mi West 8.1 mph - N/A   Clear
11:53 AM 78.1 °F - 57.9 °F 50% 30.06 in 10.0 mi WSW 9.2 mph - N/A   Partly Cloudy
12:53 PM 81.0 °F 81.1 °F 57.9 °F 45% 30.05 in 10.0 mi West 10.4 mph - N/A   Scattered Clouds
1:53 PM 82.0 °F 82.0 °F 57.9 °F 44% 30.04 in 10.0 mi WSW 15.0 mph 19.6 mph N/A   Scattered Clouds
2:53 PM 82.9 °F 82.4 °F 57.0 °F 41% 30.02 in 10.0 mi WSW 11.5 mph 18.4 mph N/A   Scattered Clouds
3:53 PM 82.9 °F 82.1 °F 55.9 °F 39% 30.00 in 10.0 mi WSW 11.5 mph 21.9 mph N/A   Partly Cloudy
4:53 PM 78.1 °F - 63.0 °F 60% 30.00 in 10.0 mi SSE 8.1 mph - N/A   Scattered Clouds
5:53 PM 79.0 °F - 64.0 °F 60% 30.00 in 10.0 mi SE 6.9 mph - N/A   Scattered Clouds
6:53 PM 79.0 °F - 64.9 °F 62% 29.99 in 10.0 mi SE 9.2 mph - N/A   Scattered Clouds
7:53 PM 79.0 °F - 57.0 °F 47% 30.01 in 10.0 mi WNW 9.2 mph - N/A   Partly Cloudy
8:53 PM 75.9 °F - 55.0 °F 48% 30.04 in 10.0 mi WNW 6.9 mph - N/A   Clear
9:53 PM 73.9 °F - 55.9 °F 53% 30.06 in 10.0 mi West 9.2 mph - N/A   Clear
10:53 PM 72.0 °F - 55.9 °F 57% 30.08 in 10.0 mi West 9.2 mph - N/A   Clear
11:53 PM 70.0 °F - 57.9 °F 65% 30.08 in 10.0 mi West 6.9 mph - N/A   Clear